Location: Table Mountain
(47.2500°N, 120.5778°W)
Time: 00:48:29
(UTC-07:00)

Tiangong 2 - Pass Details

Date: 13 October 2017
Orbit: 388 x 391 km, 42.8° (Epoch: 23 October)

Event Time Altitude Azimuth Distance (km) Brightness Sun altitude
Exits shadow 05:58:09 24° 225° (SW) 864 2.4 -14.4°
Maximum altitude 05:59:31 36° 176° (S) 640 2.1 -14.1°
Drops below altitude 10° 06:02:29 10° 108° (ESE) 1,417 5.1 -13.6°
Sets 06:04:39 0° 100° (E) 2,273 6.7 -13.3°
